Welcome to The Terminal

Map Downloads:

134 maps found
Name Type Author Date Downloads Rating
Amaplanca II TSC Gwizz 09/10/02 1633 50% (1)
Apple War Ooze TSC Gwizz 21/05/02 1789 0% (0)
Arboria TSC Anders Robert Pilgaard 21/05/02 1680 0% (0)
Atlantis National Railways TSC Anders Robert Pilgaard 21/05/02 3024 100% (2)
Atoll RRT2 Gwizz 21/05/02 1486 70% (2)
Atoll Temple RRT2 Gwizz 21/05/02 1350 0% (0)
Auf Der Flucht RRT2 Robert the "porky" 21/05/02 1615 75% (2)
Aurelia 1862 TSC Anders Robert Pilgaard 21/05/02 1428 0% (0)
Bex TSC Adam 21/05/02 1293 0% (0)
Big Apple II RRT2 PopTop Software 21/05/02 2260 80% (1)
Big Apple IIe TSC Steve Lorenz 21/05/02 1235 0% (0)
Borduria TSC Anders Robert Pilgaard 21/05/02 1410 0% (0)
Britannia RRT2 J Sylvest and GS Bales 21/05/02 1853 0% (0)
Bulvanian Petroleoum TSC Toni Ronkko 24/09/02 2021 50% (2)
Changes In Transportation RRT2 Brian Duarte 21/05/02 2146 0% (0)
Cheryls Valley RRT2 Tigger 21/05/02 1511 0% (0)
Closa RRT2 Darrell 21/05/02 1343 0% (0)
Coal Country RRT2 Sirian 21/05/02 2262 0% (0)
Coast Line TSC Lars Maischak 15/06/03 1368 100% (1)
Colorz! RRT2 Bill Ingram 21/05/02 1677 85% (2)
Copalis RRT2 Mike Burke & Jamie Burnett 21/05/02 1717 95% (2)
Corsairland RRT2 Kent Powderly 21/05/02 1899 0% (0)
County Sodenstein TSC Lars Maischak 15/06/03 1114 60% (1)
Darkmere RRT2 Ian Lewis 21/05/02 1489 0% (0)
Docklands RRT2 Jonathon James Tan 21/05/02 1795 20% (1)
DragonIsle RRT2 Unknown 21/05/02 1650 0% (0)
Edland RRT2 Eddie Bangor 21/05/02 1915 100% (1)
Euphoria TSC PopTop Software 21/05/02 1300 90% (1)
Fantasia TSC Anders Robert Pilgaard 21/05/02 1177 0% (0)
File Island TSC Jimmy Chau 09/12/05 3000 90% (1)
Final Fantasy 7 TSC Matthew Willis 21/05/02 1676 0% (0)
Fisland RRT2 Dave Donaldson 21/05/02 1859 100% (1)
Free Four All RRT2 Sirian 21/05/02 1683 100% (1)
Gateway to Paradise TSC Matthew Asnip 21/05/02 1925 0% (0)
Gateway to Paradise (Light) TSC Matthew Asnip 21/05/02 988 0% (0)
Gold Rush! RRT2 Andrew Mark Schwartz 21/05/02 2206 0% (0)
Golden Fjords Scenic RRT2 Kent Powderly 21/05/02 1640 0% (0)
Grand Prix RRT2 Sirian 21/05/02 2016 89% (7)
Great Crater RRT2 Kent Powderly 21/05/02 2283 90% (1)
Green Mars RRT2 Gonzo 21/05/02 2116 0% (0)
Grosetania RRT2 Whitey 21/05/02 1384 0% (0)
Hail Sevastia TSC David Masters 21/05/02 1401 45% (2)
Hibirnia TSC Anders Robert Pilgaard 21/05/02 1346 0% (0)
High Desert RRT2 Dave 21/05/02 2219 0% (0)
High Desert 2 TSC A. Gracier 21/05/02 1562 0% (0)
Industrial Fixer Upper TSC Gwizz 21/05/02 1371 70% (1)
Island Conquest TSC James Stevens 21/05/02 1239 0% (0)
Kingdom of Tara TSC Anders Robert Pilgaard 21/05/02 1454 30% (1)
Kua'Apuanii TSC PopTop Software 21/05/02 1144 0% (0)
Lagoria TSC Anders Robert Pilgaard 21/05/02 3609 0% (0)
Lala-land TSC Robbie Langton 19/04/04 1494 0% (0)
Lusitania TSC Anders Robert Pilgaard 21/05/02 1404 50% (1)
Mad King Ed TSC Eddie Bangor 21/05/02 1294 90% (1)
Mad King Ed RRT2 Eddie Bangor 21/05/02 1356 0% (0)
Majode TSC Mark Confer 20/02/04 1522 100% (2)
Making The Grade RRT2 Sirian 21/05/02 1793 100% (2)
Making The Grade RRT2 Sirian 21/05/02 1062 0% (0)
Mars RRT2 James Stevens 21/05/02 1546 0% (0)
Mars TSC James Stevens 21/05/02 1166 0% (0)
Mason County RRT2 Mike Gasaway 21/05/02 1428 0% (0)
Metro31-H RRT2 Unknown 21/05/02 1833 0% (0)
Middle Earth RRT2 Kent Powderly 21/05/02 4076 0% (0)
Military 12 TSC Kraellin 21/05/02 1704 30% (1)
MongoIsland TSC Anders Robert Pilgaard 21/05/02 1092 0% (0)
Montania 1858 TSC Anders Robert Pilgaard 21/05/02 1236 0% (0)
Morietzia RRT2 Unknown 21/05/02 1528 0% (0)
Mtron '99 TSC James Stevens 21/05/02 1041 0% (0)
New Eden TSC Marco Stefanutti 21/05/02 2427 0% (0)
Oceania RRT2 Eckhard Flor 21/05/02 1908 0% (0)
Oceania 1862 TSC Anders Robert Pilgaard 21/05/02 1306 0% (0)
Ourcadia RRT2 Rodolphe Bourgouin 21/05/02 1205 0% (0)
Overpass TSC Steve Lorenz 21/05/02 889 0% (0)
Overpass & Tunnels TSC David Gross 21/05/02 1271 0% (0)
Paradise 2000 TSC Rick Bottens 21/05/02 1221 0% (0)
Parniath Bridge TSC PopTop Software 21/05/02 1240 0% (0)
Party Machines TSC Lars Maischak 21/05/02 1399 80% (1)
Patagonia RRT2 [pro] 21/05/02 1659 0% (0)
Peninsula RRT2 Anders Robert Pilgaard 21/05/02 1344 0% (0)
Peninsula 2 TSC Anders Robert Pilgaard 03/06/02 2166 0% (0)
Quickie 2A TSC Unknown 21/05/02 896 0% (0)
Royal Empress TSC Jon Calon 21/05/02 1354 0% (0)
Sarelia TSC Anders Robert Pilgaard 21/05/02 1781 80% (1)
Something Trekky TSC James Stevens 21/05/02 1035 0% (0)
Starship Troopers TSC Steve Lorenz 21/05/02 1858 100% (1)
Strange Glue RRT2 James Stevens 21/05/02 1272 0% (0)
Sylvania TSC Anders Robert Pilgaard 21/05/02 2287 0% (0)
Tanagore Island TSC David Masters 21/05/02 1240 0% (0)
Taresia TSC Anders Robert Pilgaard 03/06/02 1060 0% (0)
Tatooine RRT2 Andy Moorer 21/05/02 1915 0% (0)
Tehos RRT2 Juho Tiettinen 15/06/03 1270 0% (0)
TehoWorld RRT2 Juho Tiettinen 15/06/03 2440 0% (0)
Terra Aqueos RRT2 James Wellham 21/05/02 1652 100% (1)
Tester TSC Steve Lorenz 21/05/02 1036 0% (0)
Tester RRT2 Steve Lorenz 21/05/02 1198 0% (0)
The Darkening 1 TSC James Stevens 21/05/02 1302 80% (1)
The Darkening 2 TSC James Stevens 21/05/02 1064 10% (1)
The Darkening 3: Unite the States TSC James Stevens 21/05/02 1347 90% (1)
The Darkening 4: Floods Legacy TSC James Stevens 21/05/02 1219 0% (0)
The Iron Spike TSC Overlord 15/06/03 2368 0% (0)
The Main Vein RRT2 Derek D 21/05/02 1253 0% (0)
The Mines RRT2 Tony J Frank 21/05/02 1880 0% (0)
The National World TSC Matthew Tam 21/05/02 1370 0% (0)
The World Map TSC Matthew Tam 21/05/02 2284 0% (0)
Tidland TSC James E. Petts 21/05/02 985 0% (0)
Tolnedran Imperial Railway TSC Richard Lally 21/05/02 1669 0% (0)
Towers Of Hell TSC James Stevens 21/05/02 977 0% (0)
Train Island RRT2 Jonathan 21/05/02 1237 0% (0)
Treasure Island RRT2 Unknown 21/05/02 1902 0% (0)
Utopia RRT2 Cecil Harper 21/05/02 1819 0% (0)
Utopia TSC Anders Robert Pilgaard 21/05/02 1162 0% (0)
Utopia 2 TSC Anders Robert Pilgaard 21/05/02 1447 0% (0)
Venturia TSC Anders Robert Pilgaard 03/06/02 2215 0% (0)
Vulcano RRT2 Martijn ter Haar 21/05/02 1107 0% (0)
Witch's Route TSC Charles Swain 21/05/02 983 10% (1)
WNE 01: Map One RRT2 James Stevens 21/05/02 1414 0% (0)
WNE 02: Switzlerland 2099 RRT2 James Stevens 21/05/02 1665 0% (0)
WNE 03: Appleasia RRT2 James Stevens 21/05/02 1379 0% (0)
WNE 04: Begin Again RRT2 James Stevens 21/05/02 1314 0% (0)
WNE 05: Mars Corp RRT2 James Stevens 21/05/02 1303 0% (0)
WNE 06: The Freedom Movement RRT2 James Stevens 21/05/02 1131 0% (0)
WNE 07: Titan: The New Earth? RRT2 James Stevens 21/05/02 1693 0% (0)
WNE 08: Titan: Last Rights RRT2 James Stevens 21/05/02 1382 30% (1)
WNE 09: Erase/Rewind RRT2 James Stevens 21/05/02 1499 0% (0)
WNE 10: Reunification RRT2 James Stevens 21/05/02 1119 0% (0)
WNE 11: Future's End TSC James Stevens 21/05/02 1222 0% (0)
WNE 12: Test Of Time TSC James Stevens 21/05/02 1145 75% (2)
WNE 13: The Awakening RRT2 James Stevens 21/05/02 1252 0% (0)
WNE 14: The Money Pit RRT2 James Stevens 21/05/02 1311 0% (0)
WNE 15: Scorched Earth RRT2 James Stevens 21/05/02 1287 0% (0)
WNE 16: The Launch RRT2 James Stevens 21/05/02 1259 0% (0)
WNE 17: Rising Star RRT2 James Stevens 21/05/02 1061 0% (0)
WNE 18: Cold War RRT2 James Stevens 21/05/02 1307 0% (0)
WNE 19: For Gorwin's Honour RRT2 James Stevens 21/05/02 1379 0% (0)
WNE 20: From Hell's Heart... TSC James Stevens 21/05/02 1035 0% (0)

Site created April 23, 1998. © Jesse Reid, All Rights Reserved, 2003.